When you browse on this site, cookies collect data to enhance your experience and personalize the content and advertising you see.
Visit our Privacy Policy to learn more. By continuing to use the site, you agree to this use of cookies and data.
  • In Italy
  • List of Countries
  • For 7 days
  • Water Temperature
  • Satellite Maps
  • Weather Map
  • Weather Widgets
  • user-avatar
    Login

    Hourly Weather Hasselt

    Today, 20 April, Saturday

    Time Temperature Precipitation Wind Pressure Humidity
    00:00 +14°C° 0 mm 2 mps 767 mmHg 56%
    01:00 +14°C° 0 mm 2 mps 767 mmHg 58%
    02:00 +13°C° 0 mm 2 mps 767 mmHg 60%
    03:00 +13°C° 0 mm 1 mps 767 mmHg 62%
    04:00 +13°C° 0 mm 2 mps 767 mmHg 65%
    05:00 +13°C° 0 mm 2 mps 767 mmHg 68%
    06:00 +14°C° 0 mm 2 mps 768 mmHg 70%
    07:00 +16°C° 0 mm 2 mps 768 mmHg 66%
    08:00 +18°C° 0 mm 2 mps 768 mmHg 61%
    09:00 +20°C° 0 mm 3 mps 768 mmHg 56%
    10:00 +22°C° 0 mm 3 mps 768 mmHg 51%
    11:00 +24°C° 0 mm 3 mps 767 mmHg 47%
    12:00 +25°C° 0 mm 3 mps 767 mmHg 42%
    13:00 +25°C° 0 mm 3 mps 767 mmHg 41%
    14:00 +25°C° 0 mm 3 mps 767 mmHg 40%
    15:00 +25°C° 0 mm 3 mps 766 mmHg 39%
    16:00 +24°C° 0 mm 3 mps 766 mmHg 44%
    17:00 +21°C° 0 mm 3 mps 766 mmHg 50%
    18:00 +20°C° 0 mm 3 mps 766 mmHg 55%
    19:00 +19°C° 0 mm 3 mps 766 mmHg 56%
    20:00 +18°C° 0 mm 3 mps 766 mmHg 58%
    21:00 +15°C° 0 mm 4 mps 766 mmHg 59%
    22:00 +16°C° 0 mm 3 mps 766 mmHg 61%
    23:00 +14°C° 0 mm 3 mps 766 mmHg 63%

    Tomorrow, 21 April, Sunday

    Time Temperature Precipitation Wind Pressure Humidity
    00:00 +13°C° 0 mm 3 mps 766 mmHg 65%
    01:00 +13°C° 0 mm 2 mps 766 mmHg 68%
    02:00 +13°C° 0 mm 2 mps 765 mmHg 70%
    03:00 +12°C° 0 mm 2 mps 765 mmHg 73%
    04:00 +13°C° 0 mm 2 mps 765 mmHg 74%
    05:00 +13°C° 0 mm 2 mps 764 mmHg 74%
    06:00 +13°C° 0 mm 2 mps 764 mmHg 75%
    07:00 +15°C° 0 mm 2 mps 764 mmHg 68%
    08:00 +18°C° 0 mm 2 mps 764 mmHg 60%
    09:00 +20°C° 0 mm 3 mps 763 mmHg 53%
    10:00 +21°C° 0 mm 3 mps 763 mmHg 48%
    11:00 +22°C° 0 mm 3 mps 762 mmHg 44%
    12:00 +24°C° 0 mm 3 mps 762 mmHg 39%
    13:00 +24°C° 0 mm 3 mps 761 mmHg 39%
    14:00 +24°C° 0 mm 3 mps 761 mmHg 38%
    15:00 +24°C° 0 mm 3 mps 760 mmHg 37%
    16:00 +22°C° 0 mm 3 mps 760 mmHg 42%
    17:00 +20°C° 0 mm 2 mps 759 mmHg 47%
    18:00 +19°C° 0 mm 2 mps 759 mmHg 52%
    19:00 +17°C° 0 mm 2 mps 759 mmHg 54%
    20:00 +16°C° 0 mm 2 mps 759 mmHg 56%
    21:00 +14°C° 0 mm 2 mps 759 mmHg 59%
    22:00 +14°C° 0 mm 2 mps 759 mmHg 61%
    23:00 +14°C° 0 mm 2 mps 758 mmHg 62%

    Day after tomorrow, 22 April, Monday

    Time Temperature Precipitation Wind Pressure Humidity
    00:00 +13°C° 0 mm 2 mps 758 mmHg 64%
    01:00 +13°C° 0 mm 2 mps 758 mmHg 66%
    02:00 +12°C° 0 mm 2 mps 757 mmHg 69%
    03:00 +12°C° 0 mm 2 mps 757 mmHg 71%
    04:00 +12°C° 0 mm 2 mps 756 mmHg 71%
    05:00 +13°C° 0 mm 2 mps 756 mmHg 71%
    06:00 +13°C° 0 mm 2 mps 755 mmHg 72%
    07:00 +16°C° 0 mm 3 mps 755 mmHg 65%
    08:00 +18°C° 0 mm 3 mps 755 mmHg 59%
    09:00 +20°C° 0 mm 4 mps 754 mmHg 52%
    10:00 +21°C° 0 mm 4 mps 754 mmHg 48%
    11:00 +22°C° 0 mm 5 mps 753 mmHg 44%
    12:00 +23°C° 0 mm 5 mps 753 mmHg 40%
    13:00 +23°C° 0 mm 5 mps 752 mmHg 40%
    14:00 +23°C° 0 mm 5 mps 751 mmHg 40%
    15:00 +23°C° 0 mm 5 mps 751 mmHg 39%
    16:00 +22°C° 0 mm 5 mps 750 mmHg 45%
    17:00 +21°C° 0 mm 4 mps 750 mmHg 51%
    18:00 +19°C° 0 mm 3 mps 750 mmHg 56%
    19:00 +18°C° 0 mm 4 mps 750 mmHg 57%
    20:00 +17°C° 0 mm 4 mps 750 mmHg 58%
    21:00 +15°C° 0 mm 5 mps 750 mmHg 58%
    22:00 +14°C° 0 mm 5 mps 750 mmHg 59%
    23:00 +13°C° 0 mm 5 mps 749 mmHg 59%

    23 April, Tuesday

    Time Temperature Precipitation Wind Pressure Humidity
    00:00 +13°C° 0 mm 4 mps 749 mmHg 59%
    01:00 +12°C° 0 mm 4 mps 749 mmHg 60%
    02:00 +11°C° 0 mm 4 mps 749 mmHg 60%
    03:00 +11°C° 0 mm 4 mps 749 mmHg 61%
    04:00 +11°C° 0 mm 4 mps 748 mmHg 62%
    05:00 +10°C° 0 mm 5 mps 748 mmHg 64%
    06:00 +9°C° 0 mm 5 mps 748 mmHg 65%
    07:00 +12°C° 0 mm 5 mps 748 mmHg 63%
    08:00 +14°C° 0 mm 5 mps 748 mmHg 60%
    09:00 +15°C° 0 mm 6 mps 747 mmHg 57%
    10:00 +16°C° 0 mm 6 mps 747 mmHg 55%
    11:00 +19°C° 0 mm 5 mps 747 mmHg 53%
    12:00 +20°C° 0 mm 5 mps 746 mmHg 50%
    13:00 +20°C° 0 mm 5 mps 746 mmHg 51%
    14:00 +20°C° 0 mm 6 mps 746 mmHg 52%
    15:00 +20°C° 0 mm 6 mps 745 mmHg 53%
    16:00 +17°C° 0 mm 5 mps 745 mmHg 58%
    17:00 +17°C° 0 mm 4 mps 746 mmHg 62%
    18:00 +16°C° 0 mm 3 mps 746 mmHg 67%
    19:00 +14°C° 0 mm 3 mps 746 mmHg 71%
    20:00 +13°C° 0 mm 3 mps 746 mmHg 75%
    21:00 +12°C° 0 mm 2 mps 747 mmHg 80%
    22:00 +12°C° 0 mm 2 mps 747 mmHg 82%
    23:00 +11°C° 0 mm 1 mps 747 mmHg 85%

    24 April, Wednesday

    Time Temperature Precipitation Wind Pressure Humidity
    00:00 +11°C° 0 mm 1 mps 747 mmHg 88%
    01:00 +10°C° 0 mm 1 mps 747 mmHg 89%
    02:00 +10°C° 0 mm 1 mps 747 mmHg 89%
    03:00 +10°C° 0 mm 1 mps 747 mmHg 90%
    04:00 +11°C° 0 mm 1 mps 748 mmHg 88%
    05:00 +12°C° 0 mm 1 mps 748 mmHg 85%
    06:00 +12°C° 0 mm 1 mps 748 mmHg 83%
    07:00 +15°C° 0 mm 2 mps 749 mmHg 79%
    08:00 +17°C° 0 mm 2 mps 749 mmHg 76%
    09:00 +19°C° 0 mm 3 mps 749 mmHg 72%
    10:00 +19°C° 0.8 mm 4 mps 750 mmHg 73%
    11:00 +20°C° 0.8 mm 5 mps 750 mmHg 74%
    12:00 +20°C° 0.8 mm 5 mps 750 mmHg 75%
    13:00 +20°C° 0.7 mm 5 mps 751 mmHg 72%
    14:00 +21°C° 0.7 mm 5 mps 751 mmHg 70%
    15:00 +21°C° 0.7 mm 4 mps 751 mmHg 67%
    16:00 +20°C° 0.2 mm 3 mps 751 mmHg 71%
    17:00 +19°C° 0.2 mm 2 mps 751 mmHg 74%
    18:00 +20°C° 0.2 mm 1 mps 752 mmHg 77%
    19:00 +18°C° 0.4 mm 2 mps 752 mmHg 81%
    20:00 +17°C° 0.4 mm 2 mps 752 mmHg 85%
    21:00 +16°C° 0.4 mm 2 mps 753 mmHg 88%
    22:00 +16°C° 0 mm 2 mps 752 mmHg 87%
    23:00 +14°C° 0 mm 3 mps 752 mmHg 86%

    25 April, Thursday

    Time Temperature Precipitation Wind Pressure Humidity
    00:00 +14°C° 0 mm 3 mps 752 mmHg 84%
    01:00 +14°C° 0 mm 3 mps 752 mmHg 84%
    02:00 +14°C° 0 mm 3 mps 752 mmHg 85%
    03:00 +13°C° 0 mm 3 mps 752 mmHg 85%
    04:00 +15°C° 0.3 mm 2 mps 752 mmHg 86%
    05:00 +15°C° 0.3 mm 2 mps 752 mmHg 86%
    06:00 +15°C° 0.3 mm 2 mps 752 mmHg 87%
    07:00 +17°C° 0.4 mm 2 mps 752 mmHg 83%
    08:00 +18°C° 0.4 mm 2 mps 751 mmHg 78%
    09:00 +20°C° 0.4 mm 2 mps 751 mmHg 73%
    10:00 +21°C° 0 mm 2 mps 751 mmHg 68%
    11:00 +23°C° 0 mm 1 mps 751 mmHg 63%
    12:00 +25°C° 0 mm 1 mps 751 mmHg 58%
    13:00 +22°C° 1 mm 3 mps 750 mmHg 67%
    14:00 +20°C° 1 mm 4 mps 750 mmHg 75%
    15:00 +16°C° 1 mm 5 mps 750 mmHg 84%
    16:00 +17°C° 0.5 mm 4 mps 750 mmHg 85%
    17:00 +17°C° 0.5 mm 3 mps 750 mmHg 86%
    18:00 +16°C° 0.5 mm 1 mps 749 mmHg 87%
    19:00 +16°C° 0.5 mm 1 mps 750 mmHg 89%
    20:00 +15°C° 0.5 mm 1 mps 750 mmHg 92%
    21:00 +14°C° 0.5 mm 1 mps 750 mmHg 94%
    22:00 +14°C° 0 mm 1 mps 750 mmHg 94%
    23:00 +14°C° 0 mm 1 mps 749 mmHg 94%
    Show more